Flag for Germany Weather past 2 weeks in Schönebeck, Saxony-Anhalt, Germany

Now
49 °F

Passing clouds.


Feels Like: 49 °F
Forecast: 43 / 69 °F
Wind: 2 mph from Southwest

Location: Magdeburg

Current Time: May 30, 2015 at 11:00:18 PM

Latest Report: May 30, 2015 at 10:00 PM


Visibility: 28 mi

Pressure: 30.02 "Hg

Humidity: 79%

Dew point: 42 °F

Location of SchönebeckLocation

Historic Weather in Schönebeck — Graph

°F

Schönebeck temperature yesterday

Maximum temperature yesterday: 68 °F (at 6:00 PM)
Minimum temperature yesterday: 47 °F (at 6:00 AM)
Average temperature yesterday: 58 °F

Past Weeks' High & Low Weather Summary

 TemperatureHumidityPressure
High71 °F (May 18, 6:00 PM)93% (May 29, 1:00 AM)30.32 "Hg (May 29, 1:00 AM)
Low40 °F (May 21, 6:00 AM)27% (May 22, 3:00 PM)29.61 "Hg (May 19, 2:00 AM)
Average55 °F64%30.03 "Hg
* Reported May 15 10:00 PM — May 30 10:00 PM, Schönebeck, Weather by CustomWeather, © 2015

Note: Actual official high and low records may vary slightly from our data, if they occured in-between our weather recording intervals... More about our weather records

Advertising

Schönebeck weather history for previous 24 hours

 ConditionsComfort  
Time TempWeatherWind HumidityBarometerVisibility
10:00 PM
Sat, May 30
49 °FPassing clouds.2 mph79%30.02 "Hg28 mi
9:00 PM51 °FPassing clouds.3 mph70%30.01 "Hg37 mi
8:00 PM53 °FPassing clouds.5 mph58%30.00 "Hg37 mi
7:00 PM51 °FOvercast.6 mph66%29.99 "Hg25 mi
6:00 PM57 °FPartly sunny.6 mph54%29.96 "Hg28 mi
5:00 PM57 °FPartly sunny.7 mph55%29.95 "Hg28 mi
4:00 PM53 °FSprinkles. Overcast.5 mph68%29.94 "Hg19 mi
3:00 PM59 °FPartly sunny.8 mph45%29.90 "Hg37 mi
2:00 PM59 °FPartly sunny.6 mph44%29.87 "Hg37 mi
1:00 PM60 °FPartly sunny.6 mph44%29.87 "Hg31 mi
12:00 PM58 °FPartly sunny.6 mph53%29.87 "Hg31 mi
11:00 AM56 °FPartly sunny.6 mph56%29.86 "Hg31 mi
10:00 AM53 °FPartly sunny.5 mph65%29.85 "Hg31 mi
9:00 AM53 °FPartly sunny.7 mph69%29.83 "Hg31 mi
8:00 AM50 °FPartly sunny.3 mph81%29.81 "Hg31 mi
7:00 AM49 °FOvercast.3 mph86%29.80 "Hg31 mi
6:00 AM48 °FOvercast.3 mph89%29.78 "Hg31 mi
5:00 AM48 °FLight rain. Haze.5 mph88%29.78 "Hg9 mi
4:00 AM49 °FLight freezing rain. Overcast.6 mph84%29.77 "Hg22 mi
3:00 AM54 °FOvercast.3 mph81%29.72 "Hg11 mi
2:00 AM54 °FOvercast.3 mph82%29.73 "Hg11 mi
1:00 AM53 °FOvercast.3 mph83%29.74 "Hg12 mi
12:00 AM55 °FPassing clouds.3 mph78%29.74 "Hg15 mi
Weather by CustomWeather, © 2015

See weather overviewHow to use our weather pages